Location: Oregon Trail
(41.1872°N, 102.0741°W)
Time: 17:41:18
(UTC+00:00)

Daily predictions for brighter satellites

Satellite Brightness Start Highest point End
(mag) Time Altitude Azimuth Time Altitude Azimuth Time Altitude Azimuth
STARLINK-40 3.9 12:04:47 41° WNW 12:05:36 47° NNW 12:09:38 10° NE
STARLINK-44 3.9 12:06:21 39° WNW 12:07:13 46° NNW 12:11:14 10° NE
STARLINK-36 4.0 12:07:59 38° WNW 12:08:57 45° NNW 12:12:56 10° NE
Cosmos 1766 Rocket 3.8 12:06:21 10° SSW 12:10:26 41° WNW 12:14:34 10° N
SJ 16-02 3.6 12:15:15 10° NNW 12:15:15 10° NNW 12:15:15 10° NNW
Cosmos 1408 2.6 12:09:19 10° SSW 12:12:55 51° W 12:16:31 10° N
Cosmos 1725 Rocket 4.0 12:08:13 10° S 12:14:29 88° W 12:20:50 10° N
Cosmos 2016 Rocket 3.9 12:08:58 10° SSW 12:15:11 70° W 12:21:32 10° N
STARLINK-35 4.1 12:14:20 32° WNW 12:15:34 41° NNW 12:19:31 10° NE
STARLINK-51 4.2 12:15:58 31° WNW 12:17:17 40° NNW 12:21:13 10° NE
NOSS 3-4 (A) 3.9 12:12:22 13° NW 12:18:57 85° WSW 12:26:46 10° SSE
Meteor PRIRODA 4.1 12:15:37 10° N 12:18:59 35° WNW 12:22:18 10° SW
STARLINK-30 4.2 12:17:37 29° WNW 12:19:00 39° NNW 12:22:55 10° NE
NOSS 3-4 (C) 3.9 12:12:27 13° NW 12:19:04 85° WSW 12:26:52 10° SSE
COBE Rocket 4.4 12:15:12 10° SSW 12:20:02 41° W 12:24:48 10° NNW
STARLINK-33 4.2 12:19:10 28° WNW 12:20:38 38° NNW 12:24:32 10° NE
COSMO-SKYMED 1 2.5 12:17:29 10° S 12:21:46 61° W 12:26:05 10° NNW
STARLINK-26 4.4 12:20:52 27° WNW 12:22:12 33° NNW 12:25:57 10° NE
STARLINK-50 4.3 12:20:45 27° WNW 12:22:16 37° NNW 12:26:10 10° NE
STARLINK-56 4.3 12:23:59 25° WNW 12:25:39 36° NNW 12:29:30 10° NE
Starlink (trailer) 4.4 12:25:46 24° WNW 12:27:31 35° NNW 12:31:21 10° NE
PAYLOAD B 4.1 12:22:19 10° NNE 12:27:50 80° WNW 12:33:19 10° SSW
BREEZE-M DEB (TANK) 3.3 12:19:57 16° WNW 12:28:55 80° SW 12:32:22 10° SE
STARLINK-38 4.4 12:27:10 23° WNW 12:28:59 34° NNW 12:32:48 10° NE
BREEZE-M DEB (TANK) 3.6 12:27:52 23° W 12:29:21 40° SSW 12:35:30 10° SE
STARLINK-65 4.4 12:28:47 22° WNW 12:30:41 33° NNW 12:34:28 10° NE
PSLV R/B 4.4 12:27:54 10° N 12:31:26 33° WNW 12:35:02 10° SW
CZ-4B DEB 4.2 12:30:55 10° N 12:36:17 60° WNW 12:41:41 10° SSW
USA 116 3.3 12:33:28 10° S 12:36:41 61° W 12:40:13 10° NNW
Cosmos 1816 Rocket 4.5 12:31:17 10° NNW 12:37:33 70° W 12:43:43 10° S
SJ-12 4.3 12:34:43 10° N 12:38:40 42° WNW 12:42:34 10° SW
Tsikada Rocket 4.0 12:35:26 10° NNW 12:41:46 69° W 12:48:00 10° S
Cosmos 2237 4.2 12:38:29 10° NNW 12:44:12 73° WSW 12:49:51 10° SSE
Cosmos 494 Rocket 4.3 12:39:40 10° NNW 12:44:55 71° ENE 12:50:06 10° SSE
Cosmos 972 Rocket 4.0 12:47:34 10° SSW 12:52:36 69° WNW 12:58:09 10° NNE
COSMOS 2487 4.0 12:52:20 10° WSW 12:54:33 16° WNW 12:56:47 10° NNW
BREEZE-M DEB (TANK) 2.1 12:52:19 13° WNW 12:54:48 82° SSW 12:57:45 10° ESE
ALOS 2.7 12:51:08 10° N 12:55:31 41° WNW 12:59:53 10° SW
COSMOS 2428 3.6 12:50:06 10° NNW 12:55:40 51° ENE 13:01:14 10° SE
Cosmos 1238 Rocket 4.0 12:49:17 10° SSW 12:55:49 64° W 13:01:44 10° N
Cosmos 1833 4.4 12:50:35 10° SW 12:56:00 49° WNW 13:01:28 10° NNE
Cosmos 2360 Rocket 2.4 12:50:43 10° NNW 12:56:14 54° WSW 13:01:44 10° S
Cosmos 1933 3.9 12:53:02 10° NNW 12:56:45 37° W 13:00:26 10° SSW
Cosmos 1125 Rocket 3.8 12:52:06 10° SW 12:57:11 47° WNW 13:02:16 10° N
ATLAS 2AS CENTAUR R/B 3.4 12:51:51 10° NW 12:58:33 37° WSW 13:04:43 10° S
Lacrosse 5 4.0 12:57:14 10° NNW 12:59:36 13° N 13:01:59 10° NNE
Cosmos 1151 Rocket 4.3 12:56:35 10° NW 12:59:52 21° W 13:03:08 10° SW
SL-16 R/B 3.5 12:56:13 10° NW 13:00:18 21° W 13:04:21 10° SSW
Cosmos 2237 Rocket 4.3 12:55:57 10° N 13:00:27 23° NE 13:04:55 10° ESE
SMAP 3.7 12:55:55 10° NNE 13:00:32 62° E 13:05:08 10° S
Okean O Rocket 1.9 12:56:43 10° N 13:00:48 41° WNW 13:04:53 10° SW
Cosmos 2228 Rocket 3.4 12:57:01 10° NNW 13:01:28 50° W 13:05:53 10° SSW
ATLAS CENTAUR R/B 3.0 12:57:58 10° W 13:01:41 21° NW 13:05:19 10° N
Lacrosse 5 rocket 2.4 12:59:44 10° NNW 13:03:02 33° NE 13:06:18 10° ESE
Cosmos 1606 3.4 13:01:19 10° NNW 13:04:47 34° W 13:08:15 10° SSW
CZ-3B R/B 3.6 13:03:25 10° SW 13:05:21 12° SSW 13:06:58 10° S
STARLINK-67 3.4 13:03:12 10° WNW 13:05:34 32° SW 13:07:58 10° SSE
Cosmos 1315 Rocket 3.5 13:01:45 10° N 13:05:45 60° E 13:09:46 10° SSE
Cosmos 2322 Rocket 3.5 13:03:32 10° NW 13:07:40 21° W 13:11:47 10° SSW
Abrixas rocket 3.4 13:05:38 10° WNW 13:08:09 24° NNW 13:10:42 10° NE
H-2A R/B 3.8 13:07:42 10° SSW 13:10:35 21° SSE 13:18:04 10° ESE
NOAA 6 4.4 13:07:38 10° N 13:12:25 41° WNW 13:17:11 10° SW
Cosmos 1825 3.9 13:11:57 10° WSW 13:14:00 14° WNW 13:16:03 10° NW
Cosmos 1707 Rocket 4.2 13:09:33 10° N 13:14:01 64° E 13:18:26 10° SSE
ADEOS Rocket 4.0 13:06:23 10° SSE 13:14:04 68° ENE 13:21:23 10° N
Cosmos 1805 Rocket 3.5 13:10:58 10° SSW 13:15:17 66° W 13:19:36 10° N
Timation 2 Rocket 3.9 13:09:45 10° SSW 13:15:49 75° WNW 13:21:49 10° NNE
Sich 1 3.3 23:51:02 10° N 23:55:15 46° ENE 23:59:29 10° SSE
